Year,Month,Day,Hour,Minute,Value (Times are PST for temperature in C)
2006,05,02,00,00,6.20
2006,05,02,00,01,6.10
2006,05,02,00,02,6.10
2006,05,02,00,03,6.00
2006,05,02,00,04,6.00
2006,05,02,00,05,5.90
2006,05,02,00,06,5.90
2006,05,02,00,07,5.90
2006,05,02,00,08,5.80
2006,05,02,00,09,5.80
2006,05,02,00,10,5.70
2006,05,02,00,11,5.70
2006,05,02,00,12,5.70
2006,05,02,00,13,5.70
2006,05,02,00,14,5.70
2006,05,02,00,15,5.70
2006,05,02,00,16,5.70
2006,05,02,00,17,5.70
2006,05,02,00,18,5.70
2006,05,02,00,19,5.70
2006,05,02,00,20,5.70
2006,05,02,00,21,5.60
2006,05,02,00,22,5.60
2006,05,02,00,23,5.60
2006,05,02,00,24,5.60
2006,05,02,00,25,5.60
2006,05,02,00,26,5.50
2006,05,02,00,27,5.50
2006,05,02,00,28,5.50
2006,05,02,00,29,5.50
2006,05,02,00,30,5.50
2006,05,02,00,31,5.50
2006,05,02,00,32,5.50
2006,05,02,00,33,5.50
2006,05,02,00,34,5.40
2006,05,02,00,35,5.40
2006,05,02,00,36,5.40
2006,05,02,00,37,5.40
2006,05,02,00,38,5.40
2006,05,02,00,39,5.40
2006,05,02,00,40,5.40
2006,05,02,00,41,5.40
2006,05,02,00,42,5.40
2006,05,02,00,43,5.40
2006,05,02,00,44,5.30
2006,05,02,00,45,5.30
2006,05,02,00,46,5.30
2006,05,02,00,47,5.30
2006,05,02,00,48,5.30
2006,05,02,00,49,5.30
2006,05,02,00,50,5.30
2006,05,02,00,51,5.30
2006,05,02,00,52,5.30
2006,05,02,00,53,5.30
2006,05,02,00,54,5.30
2006,05,02,00,55,5.30
2006,05,02,00,56,5.30
2006,05,02,00,57,5.20
2006,05,02,00,58,5.20
2006,05,02,00,59,5.20
2006,05,02,01,00,5.10
2006,05,02,01,01,5.10
2006,05,02,01,02,5.10
2006,05,02,01,03,5.00
2006,05,02,01,04,4.90
2006,05,02,01,05,4.90
2006,05,02,01,06,4.90
2006,05,02,01,07,4.90
2006,05,02,01,08,4.80
2006,05,02,01,09,4.80
2006,05,02,01,10,4.70
2006,05,02,01,11,4.70
2006,05,02,01,12,4.70
2006,05,02,01,13,4.70
2006,05,02,01,14,4.60
2006,05,02,01,15,4.60
2006,05,02,01,16,4.60
2006,05,02,01,17,4.60
2006,05,02,01,18,4.60
2006,05,02,01,19,4.60
2006,05,02,01,20,4.60
2006,05,02,01,21,4.60
2006,05,02,01,22,4.50
2006,05,02,01,23,4.50
2006,05,02,01,24,4.50
2006,05,02,01,25,4.50
2006,05,02,01,26,4.40
2006,05,02,01,27,4.40
2006,05,02,01,28,4.40
2006,05,02,01,29,4.40
2006,05,02,01,30,4.40
2006,05,02,01,31,4.30
2006,05,02,01,32,4.30
2006,05,02,01,33,4.30
2006,05,02,01,34,4.30
2006,05,02,01,35,4.20
2006,05,02,01,36,4.20
2006,05,02,01,37,4.20
2006,05,02,01,38,4.20
2006,05,02,01,39,4.20
2006,05,02,01,40,4.20
2006,05,02,01,41,4.20
2006,05,02,01,42,4.20
2006,05,02,01,43,4.20
2006,05,02,01,44,4.20
2006,05,02,01,45,4.20
2006,05,02,01,46,4.10
2006,05,02,01,47,4.10
2006,05,02,01,48,4.10
2006,05,02,01,49,4.00
2006,05,02,01,50,4.00
2006,05,02,01,51,4.00
2006,05,02,01,52,4.00
2006,05,02,01,53,3.90
2006,05,02,01,54,3.90
2006,05,02,01,55,3.80
2006,05,02,01,56,3.80
2006,05,02,01,57,3.80
2006,05,02,01,58,3.80
2006,05,02,01,59,3.80
2006,05,02,02,00,3.80
2006,05,02,02,01,3.80
2006,05,02,02,02,3.70
2006,05,02,02,03,3.70
2006,05,02,02,04,3.70
2006,05,02,02,05,3.70
2006,05,02,02,06,3.60
2006,05,02,02,07,3.60
2006,05,02,02,08,3.60
2006,05,02,02,09,3.50
2006,05,02,02,10,3.50
2006,05,02,02,11,3.50
2006,05,02,02,12,3.40
2006,05,02,02,13,3.40
2006,05,02,02,14,3.40
2006,05,02,02,15,3.40
2006,05,02,02,16,3.30
2006,05,02,02,17,3.30
2006,05,02,02,18,3.30
2006,05,02,02,19,3.30
2006,05,02,02,20,3.30
2006,05,02,02,21,3.20
2006,05,02,02,22,3.20
2006,05,02,02,23,3.20
2006,05,02,02,24,3.10
2006,05,02,02,25,3.10
2006,05,02,02,26,3.10
2006,05,02,02,27,3.10
2006,05,02,02,28,3.10
2006,05,02,02,29,2.90
2006,05,02,02,30,2.90
2006,05,02,02,31,2.90
2006,05,02,02,32,2.90
2006,05,02,02,33,2.90
2006,05,02,02,34,2.80
2006,05,02,02,35,2.80
2006,05,02,02,36,2.80
2006,05,02,02,37,2.80
2006,05,02,02,38,2.80
2006,05,02,02,39,2.80
2006,05,02,02,40,2.80
2006,05,02,02,41,2.80
2006,05,02,02,42,2.80
2006,05,02,02,43,2.70
2006,05,02,02,44,2.70
2006,05,02,02,45,2.70
2006,05,02,02,46,2.70
2006,05,02,02,47,2.70
2006,05,02,02,48,2.70
2006,05,02,02,49,2.70
2006,05,02,02,50,2.70
2006,05,02,02,51,2.70
2006,05,02,02,52,2.70
2006,05,02,02,53,2.70
2006,05,02,02,54,2.60
2006,05,02,02,55,2.60
2006,05,02,02,56,2.60
2006,05,02,02,57,2.60
2006,05,02,02,58,2.60
2006,05,02,02,59,2.50
2006,05,02,03,00,2.50
2006,05,02,03,01,2.50
2006,05,02,03,02,2.60
2006,05,02,03,03,2.60
2006,05,02,03,04,2.60
2006,05,02,03,05,2.60
2006,05,02,03,06,2.60
2006,05,02,03,07,2.60
2006,05,02,03,08,2.50
2006,05,02,03,09,2.50
2006,05,02,03,10,2.50
2006,05,02,03,11,2.50
2006,05,02,03,12,2.50
2006,05,02,03,13,2.50
2006,05,02,03,14,2.50
2006,05,02,03,15,2.40
2006,05,02,03,16,2.40
2006,05,02,03,17,2.40
2006,05,02,03,18,2.30
2006,05,02,03,19,2.30
2006,05,02,03,20,2.20
2006,05,02,03,21,2.20
2006,05,02,03,22,2.20
2006,05,02,03,23,2.20
2006,05,02,03,24,2.20
2006,05,02,03,25,2.20
2006,05,02,03,26,2.20
2006,05,02,03,27,2.10
2006,05,02,03,28,2.10
2006,05,02,03,29,2.10
2006,05,02,03,30,2.00
2006,05,02,03,31,2.00
2006,05,02,03,32,2.00
2006,05,02,03,33,2.00
2006,05,02,03,34,2.00
2006,05,02,03,35,2.00
2006,05,02,03,36,1.90
2006,05,02,03,37,1.90
2006,05,02,03,38,1.80
2006,05,02,03,39,1.80
2006,05,02,03,40,1.80
2006,05,02,03,41,1.80
2006,05,02,03,42,1.80
2006,05,02,03,43,1.80
2006,05,02,03,44,1.80
2006,05,02,03,45,1.80
2006,05,02,03,46,1.80
2006,05,02,03,47,1.80
2006,05,02,03,48,1.80
2006,05,02,03,49,1.80
2006,05,02,03,50,1.80
2006,05,02,03,51,1.80
2006,05,02,03,52,1.80
2006,05,02,03,53,1.80
2006,05,02,03,54,1.80
2006,05,02,03,55,1.80
2006,05,02,03,56,1.80
2006,05,02,03,57,1.80
2006,05,02,03,58,1.80
2006,05,02,03,59,1.70
2006,05,02,04,00,1.70
2006,05,02,04,01,1.70
2006,05,02,04,02,1.70
2006,05,02,04,03,1.70
2006,05,02,04,04,1.70
2006,05,02,04,05,1.70
2006,05,02,04,06,1.70
2006,05,02,04,07,1.70
2006,05,02,04,08,1.70
2006,05,02,04,09,1.70
2006,05,02,04,10,1.70
2006,05,02,04,11,1.60
2006,05,02,04,12,1.60
2006,05,02,04,13,1.60
2006,05,02,04,14,1.60
2006,05,02,04,15,1.60
2006,05,02,04,16,1.50
2006,05,02,04,17,1.50
2006,05,02,04,18,1.50
2006,05,02,04,19,1.40
2006,05,02,04,20,1.40
2006,05,02,04,21,1.40
2006,05,02,04,22,1.40
2006,05,02,04,23,1.30
2006,05,02,04,24,1.30
2006,05,02,04,25,1.30
2006,05,02,04,26,1.30
2006,05,02,04,27,1.30
2006,05,02,04,28,1.30
2006,05,02,04,29,1.20
2006,05,02,04,30,1.20
2006,05,02,04,31,1.20
2006,05,02,04,32,1.20
2006,05,02,04,33,1.10
2006,05,02,04,34,1.10
2006,05,02,04,35,1.10
2006,05,02,04,36,1.10
2006,05,02,04,37,1.10
2006,05,02,04,38,1.10
2006,05,02,04,39,1.10
2006,05,02,04,40,1.10
2006,05,02,04,41,1.00
2006,05,02,04,42,1.00
2006,05,02,04,43,1.00
2006,05,02,04,44,1.00
2006,05,02,04,45,1.00
2006,05,02,04,46,0.90
2006,05,02,04,47,0.90
2006,05,02,04,48,0.90
2006,05,02,04,49,0.90
2006,05,02,04,50,0.90
2006,05,02,04,51,0.90
2006,05,02,04,52,0.90
2006,05,02,04,53,0.90
2006,05,02,04,54,0.90
2006,05,02,04,55,0.90
2006,05,02,04,56,0.80
2006,05,02,04,57,0.80
2006,05,02,04,58,0.80
2006,05,02,04,59,0.80
2006,05,02,05,00,0.80
2006,05,02,05,01,0.80
2006,05,02,05,02,0.80
2006,05,02,05,03,0.70
2006,05,02,05,04,0.70
2006,05,02,05,05,0.70
2006,05,02,05,06,0.70
2006,05,02,05,07,0.70
2006,05,02,05,08,0.60
2006,05,02,05,09,0.60
2006,05,02,05,10,0.60
2006,05,02,05,11,0.60
2006,05,02,05,12,0.60
2006,05,02,05,13,0.60
2006,05,02,05,14,0.60
2006,05,02,05,15,0.60
2006,05,02,05,16,0.60
2006,05,02,05,17,0.60
2006,05,02,05,18,0.60
2006,05,02,05,19,0.60
2006,05,02,05,20,0.60
2006,05,02,05,21,0.60
2006,05,02,05,22,0.60
2006,05,02,05,23,0.50
2006,05,02,05,24,0.50
2006,05,02,05,25,0.50
2006,05,02,05,26,0.50
2006,05,02,05,27,0.50
2006,05,02,05,28,0.50
2006,05,02,05,29,0.50
2006,05,02,05,30,0.50
2006,05,02,05,31,0.50
2006,05,02,05,32,0.50
2006,05,02,05,33,0.50
2006,05,02,05,34,0.50
2006,05,02,05,35,0.50
2006,05,02,05,36,0.50
2006,05,02,05,37,0.50
2006,05,02,05,38,0.50
2006,05,02,05,39,0.50
2006,05,02,05,40,0.40
2006,05,02,05,41,0.40
2006,05,02,05,42,0.40
2006,05,02,05,43,0.40
2006,05,02,05,44,0.40
2006,05,02,05,45,0.40
2006,05,02,05,46,0.40
2006,05,02,05,47,0.40
2006,05,02,05,48,0.40
2006,05,02,05,49,0.40
2006,05,02,05,50,0.40
2006,05,02,05,51,0.40
2006,05,02,05,52,0.40
2006,05,02,05,53,0.40
2006,05,02,05,54,0.30
2006,05,02,05,55,0.30
2006,05,02,05,56,0.30
2006,05,02,05,57,0.30
2006,05,02,05,58,0.30
2006,05,02,05,59,0.30
2006,05,02,06,00,0.20
2006,05,02,06,01,0.20
2006,05,02,06,02,0.20
2006,05,02,06,03,0.20
2006,05,02,06,04,0.20
2006,05,02,06,05,0.20
2006,05,02,06,06,0.20
2006,05,02,06,07,0.20
2006,05,02,06,08,0.20
2006,05,02,06,09,0.20
2006,05,02,06,10,0.20
2006,05,02,06,11,0.10
2006,05,02,06,12,0.10
2006,05,02,06,13,0.10
2006,05,02,06,14,0.10
2006,05,02,06,15,0.10
2006,05,02,06,16,0.10
2006,05,02,06,17,0.10
2006,05,02,06,18,0.10
2006,05,02,06,19,0.10
2006,05,02,06,20,0.10
2006,05,02,06,21,0.10
2006,05,02,06,22,0.10
2006,05,02,06,23,0.20
2006,05,02,06,24,0.20
2006,05,02,06,25,0.20
2006,05,02,06,26,0.20
2006,05,02,06,27,0.30
2006,05,02,06,28,0.30
2006,05,02,06,29,0.30
2006,05,02,06,30,0.30
2006,05,02,06,31,0.40
2006,05,02,06,32,0.40
2006,05,02,06,33,0.40
2006,05,02,06,34,0.40
2006,05,02,06,35,0.50
2006,05,02,06,36,0.50
2006,05,02,06,37,0.50
2006,05,02,06,38,0.60
2006,05,02,06,39,0.60
2006,05,02,06,40,0.70
2006,05,02,06,41,0.70
2006,05,02,06,42,0.70
2006,05,02,06,43,0.80
2006,05,02,06,44,0.80
2006,05,02,06,45,0.80
2006,05,02,06,46,0.80
2006,05,02,06,47,0.80
2006,05,02,06,48,0.80
2006,05,02,06,49,0.80
2006,05,02,06,50,0.90
2006,05,02,06,51,0.90
2006,05,02,06,52,0.90
2006,05,02,06,53,0.90
2006,05,02,06,54,1.00
2006,05,02,06,55,1.00
2006,05,02,06,56,1.00
2006,05,02,06,57,1.10
2006,05,02,06,58,1.10
2006,05,02,06,59,1.20
2006,05,02,07,00,1.30
2006,05,02,07,01,1.40
2006,05,02,07,02,1.40
2006,05,02,07,03,1.50
2006,05,02,07,04,1.50
2006,05,02,07,05,1.60
2006,05,02,07,06,1.70
2006,05,02,07,07,1.70
2006,05,02,07,08,1.80
2006,05,02,07,09,1.80
2006,05,02,07,10,1.90
2006,05,02,07,11,1.90
2006,05,02,07,12,2.00
2006,05,02,07,13,2.10
2006,05,02,07,14,2.20
2006,05,02,07,15,2.30
2006,05,02,07,16,2.40
2006,05,02,07,17,2.60
2006,05,02,07,18,2.70
2006,05,02,07,19,2.70
2006,05,02,07,20,2.80
2006,05,02,07,21,2.90
2006,05,02,07,22,3.00
2006,05,02,07,23,3.10
2006,05,02,07,24,3.20
2006,05,02,07,25,3.20
2006,05,02,07,26,3.30
2006,05,02,07,27,3.30
2006,05,02,07,28,3.40
2006,05,02,07,29,3.50
2006,05,02,07,30,3.50
2006,05,02,07,31,3.60
2006,05,02,07,32,3.60
2006,05,02,07,33,3.70
2006,05,02,07,34,3.80
2006,05,02,07,35,3.80
2006,05,02,07,36,3.90
2006,05,02,07,37,4.00
2006,05,02,07,38,4.10
2006,05,02,07,39,4.10
2006,05,02,07,40,4.20
2006,05,02,07,41,4.30
2006,05,02,07,42,4.40
2006,05,02,07,43,4.50
2006,05,02,07,44,4.60
2006,05,02,07,45,4.70
2006,05,02,07,46,4.80
2006,05,02,07,47,4.90
2006,05,02,07,48,4.90
2006,05,02,07,49,5.10
2006,05,02,07,50,5.10
2006,05,02,07,51,5.30
2006,05,02,07,52,5.50
2006,05,02,07,53,5.70
2006,05,02,07,54,5.80
2006,05,02,07,55,5.90
2006,05,02,07,56,6.10
2006,05,02,07,57,6.20
2006,05,02,07,58,6.40
2006,05,02,07,59,6.40
2006,05,02,08,00,6.60
2006,05,02,08,01,6.60
2006,05,02,08,02,6.70
2006,05,02,08,03,6.70
2006,05,02,08,04,6.80
2006,05,02,08,05,6.80
2006,05,02,08,06,6.90
2006,05,02,08,07,6.90
2006,05,02,08,08,7.00
2006,05,02,08,09,7.00
2006,05,02,08,10,7.10
2006,05,02,08,11,7.10
2006,05,02,08,12,7.20
2006,05,02,08,13,7.20
2006,05,02,08,14,7.20
2006,05,02,08,15,7.30
2006,05,02,08,16,7.30
2006,05,02,08,17,7.30
2006,05,02,08,18,7.30
2006,05,02,08,19,7.40
2006,05,02,08,20,7.40
2006,05,02,08,21,7.40
2006,05,02,08,22,7.50
2006,05,02,08,23,7.50
2006,05,02,08,24,7.50
2006,05,02,08,25,7.50
2006,05,02,08,26,7.50
2006,05,02,08,27,7.60
2006,05,02,08,28,7.60
2006,05,02,08,29,7.60
2006,05,02,08,30,7.70
2006,05,02,08,31,7.70
2006,05,02,08,32,7.80
2006,05,02,08,33,7.80
2006,05,02,08,34,7.80
2006,05,02,08,35,7.80
2006,05,02,08,36,7.80
2006,05,02,08,37,7.90
2006,05,02,08,38,7.90
2006,05,02,08,39,7.90
2006,05,02,08,40,8.00
2006,05,02,08,41,8.00
2006,05,02,08,42,8.00
2006,05,02,08,43,8.10
2006,05,02,08,44,8.20
2006,05,02,08,45,8.20
2006,05,02,08,46,8.20
2006,05,02,08,47,8.30
2006,05,02,08,48,8.40
2006,05,02,08,49,8.40
2006,05,02,08,50,8.50
2006,05,02,08,51,8.60
2006,05,02,08,52,8.60
2006,05,02,08,53,8.70
2006,05,02,08,54,8.70
2006,05,02,08,55,8.70
2006,05,02,08,56,8.70
2006,05,02,08,57,8.70
2006,05,02,08,58,8.70
2006,05,02,08,59,8.70
2006,05,02,09,00,8.70
2006,05,02,09,01,8.70
2006,05,02,09,02,8.70
2006,05,02,09,03,8.80
2006,05,02,09,04,8.80
2006,05,02,09,05,8.90
2006,05,02,09,06,8.90
2006,05,02,09,07,8.90
2006,05,02,09,08,9.00
2006,05,02,09,09,9.00
2006,05,02,09,10,9.00
2006,05,02,09,11,8.90
2006,05,02,09,12,8.90
2006,05,02,09,13,8.90
2006,05,02,09,14,8.90
2006,05,02,09,15,8.90
2006,05,02,09,16,8.90
2006,05,02,09,17,8.90
2006,05,02,09,18,8.90
2006,05,02,09,19,8.90
2006,05,02,09,20,9.00
2006,05,02,09,21,9.00
2006,05,02,09,22,9.00
2006,05,02,09,23,9.10
2006,05,02,09,24,9.20
2006,05,02,09,25,9.20
2006,05,02,09,26,9.20
2006,05,02,09,27,9.40
2006,05,02,09,28,9.40
2006,05,02,09,29,9.40
2006,05,02,09,30,9.40
2006,05,02,09,31,9.30
2006,05,02,09,32,9.30
2006,05,02,09,33,9.30
2006,05,02,09,34,9.30
2006,05,02,09,35,9.20
2006,05,02,09,36,9.20
2006,05,02,09,37,9.30
2006,05,02,09,38,9.30
2006,05,02,09,39,9.40
2006,05,02,09,40,9.50
2006,05,02,09,41,9.60
2006,05,02,09,42,9.60
2006,05,02,09,43,9.50
2006,05,02,09,44,9.50
2006,05,02,09,45,9.60
2006,05,02,09,46,9.60
2006,05,02,09,47,9.70
2006,05,02,09,48,9.70
2006,05,02,09,49,9.60
2006,05,02,09,50,9.50
2006,05,02,09,51,9.40
2006,05,02,09,52,9.30
2006,05,02,09,53,9.30
2006,05,02,09,54,9.40
2006,05,02,09,55,9.40
2006,05,02,09,56,9.60
2006,05,02,09,57,9.70
2006,05,02,09,58,9.70
2006,05,02,09,59,9.70
2006,05,02,10,00,9.80
2006,05,02,10,01,9.80
2006,05,02,10,02,9.80
2006,05,02,10,03,9.70
2006,05,02,10,04,9.70
2006,05,02,10,05,9.70
2006,05,02,10,06,9.60
2006,05,02,10,07,9.60
2006,05,02,10,08,9.60
2006,05,02,10,09,9.60
2006,05,02,10,10,9.60
2006,05,02,10,11,9.70
2006,05,02,10,12,9.70
2006,05,02,10,13,9.80
2006,05,02,10,14,9.90
2006,05,02,10,15,10.00
2006,05,02,10,16,10.10
2006,05,02,10,17,10.20
2006,05,02,10,18,10.30
2006,05,02,10,19,10.40
2006,05,02,10,20,10.40
2006,05,02,10,21,10.40
2006,05,02,10,22,10.30
2006,05,02,10,23,10.30
2006,05,02,10,24,10.20
2006,05,02,10,25,10.30
2006,05,02,10,26,10.40
2006,05,02,10,27,10.40
2006,05,02,10,28,10.50
2006,05,02,10,29,10.60
2006,05,02,10,30,10.60
2006,05,02,10,31,10.70
2006,05,02,10,32,10.70
2006,05,02,10,33,10.60
2006,05,02,10,34,10.60
2006,05,02,10,35,10.60
2006,05,02,10,36,10.60
2006,05,02,10,37,10.60
2006,05,02,10,38,10.60
2006,05,02,10,39,10.60
2006,05,02,10,40,10.60
2006,05,02,10,41,10.70
2006,05,02,10,42,10.80
2006,05,02,10,43,10.90
2006,05,02,10,44,11.00
2006,05,02,10,45,11.10
2006,05,02,10,46,11.20
2006,05,02,10,47,11.30
2006,05,02,10,48,11.40
2006,05,02,10,49,11.40
2006,05,02,10,50,11.40
2006,05,02,10,51,11.40
2006,05,02,10,52,11.40
2006,05,02,10,53,11.30
2006,05,02,10,54,11.10
2006,05,02,10,55,11.00
2006,05,02,10,56,10.90
2006,05,02,10,57,10.90
2006,05,02,10,58,10.90
2006,05,02,10,59,11.00
2006,05,02,11,00,11.10
2006,05,02,11,01,11.10
2006,05,02,11,02,11.20
2006,05,02,11,03,11.20
2006,05,02,11,04,11.20
2006,05,02,11,05,11.30
2006,05,02,11,06,11.40
2006,05,02,11,07,11.40
2006,05,02,11,08,11.40
2006,05,02,11,09,11.40
2006,05,02,11,10,11.40
2006,05,02,11,11,11.40
2006,05,02,11,12,11.20
2006,05,02,11,13,11.00
2006,05,02,11,14,10.90
2006,05,02,11,15,11.00
2006,05,02,11,16,11.10
2006,05,02,11,17,11.10
2006,05,02,11,18,11.20
2006,05,02,11,19,11.20
2006,05,02,11,20,11.20
2006,05,02,11,21,11.20
2006,05,02,11,22,11.10
2006,05,02,11,23,11.10
2006,05,02,11,24,11.10
2006,05,02,11,25,11.20
2006,05,02,11,26,11.40
2006,05,02,11,27,11.60
2006,05,02,11,28,11.70
2006,05,02,11,29,11.80
2006,05,02,11,30,11.80
2006,05,02,11,31,11.80
2006,05,02,11,32,11.80
2006,05,02,11,33,11.90
2006,05,02,11,34,11.90
2006,05,02,11,35,12.00
2006,05,02,11,36,12.00
2006,05,02,11,37,12.00
2006,05,02,11,38,12.10
2006,05,02,11,39,12.10
